STARLINK-36430, 67326

Orbit data source: Space-Track

STARLINK-36430, 67326 is a payload satellite owned by SpaceX/Seattle (US) in LEO that was launched on Sun, 04 Jan 2026 UTC via an FALCON 9 launch vehicle from the Air Force Eastern Test Range (AFETR). Payload-class satellites include a variety of spacecraft equipped with specific instruments for various scientific and technological missions. These include communications satellites like Starlink; space stations such as the ISS; scientific satellites like the Hubble; Earth observation satellites from companies like Planet Labs, Umbra, and HawkEye 360; GPS; miniature CubeSats for education and research; and military/defense satellites.

Loading next visibility...
Identifier
67326, 2026-002X
Orbit
LEO
Country
Flag of USUS
Related business
Manufacturer
SpaceX/Seattle
Mission
Operational Commercial Communications
Bus & Motor
STARLINK V2MO, Unknown motor
Mass
575 kg wet, ~530 kg dry
Launch date (UTC)
2026-01-04 (2 months ago)
Launch vehicle
FALCON 9
Launch site
Air Force Eastern Test Range (AFETR)
Object type
Payload
Rocket body
Debris
Shape & HBR
Box + 2 Pan, 17.7 m
Radar Cross Section
36.964 m²

Expand to show TLE details & history
Last TLE update: 1 day ago

TLE from 1 day ago
0 STARLINK-36430
1 67326U 26002X   26062.21624189  .00025096  00000-0  91785-3 0  9998
2 67326  43.0018   1.4143 0000743 321.4080  38.6718 15.27599596 10256
Epoch: 2026-03-03T05:11Z
TLE epoch observation values (Epoch: 2026-03-03T05:11:23.299Z)
Latitude
-0.00004°
Longitude
122.56869°
Altitude
482.368 km
Speed
7.626 km/s
True Right ascension
00h 05m 39s
True Declination
0° 00' 00"
Sunlit
Object was in daylight at epoch
Visualization orbit readout
Latitude
Unknown
Longitude
Unknown
Altitude
Unknown
Speed
Unknown
Apparent Right ascension
Unknown
Apparent Declination
Unknown
Sunlit
N/A
Visualization observer readout
Local Sidereal Time
09:11:50
Azimuth
Unknown
Elevation
Unknown
Doppler factor
Unknown
Orbital elements
Apogee altitude
485.445 km
Perigee altitude
484.425 km
Semi-major axis
6,863.072 km
Eccentricity
0.00007
Inclination
43.0018°
RAAN
1.4143°
Arg. of periapsis
321.408°
True anomaly
38.67712°
Mean anomaly
38.6718°
Eccentric anomaly
38.67446°
Mean motion
3.81738 °/min
Orbital period
94.31 mins
BSTAR
0.00091785
Loading maneuver chart data...
Computing Atmospheric mass density...
Loading historical data...
Loading historical data...
Loading historical data...
Loading historical data...
Loading historical data...
Loading historical data...
Loading historical data...

Documentation

Showing up to 5 results
|